Year,Month,Day,Hour,Minute,Value (Times are PST for temperature in C)
2017,04,22,00,00,7.30
2017,04,22,00,01,7.30
2017,04,22,00,02,7.30
2017,04,22,00,03,7.30
2017,04,22,00,04,7.30
2017,04,22,00,05,7.30
2017,04,22,00,06,7.30
2017,04,22,00,07,7.30
2017,04,22,00,08,7.30
2017,04,22,00,09,7.30
2017,04,22,00,10,7.30
2017,04,22,00,11,7.30
2017,04,22,00,12,7.30
2017,04,22,00,13,7.30
2017,04,22,00,14,7.30
2017,04,22,00,15,7.20
2017,04,22,00,16,7.20
2017,04,22,00,17,7.20
2017,04,22,00,18,7.20
2017,04,22,00,19,7.20
2017,04,22,00,20,7.20
2017,04,22,00,21,7.20
2017,04,22,00,22,7.20
2017,04,22,00,23,7.20
2017,04,22,00,24,7.20
2017,04,22,00,25,7.20
2017,04,22,00,26,7.20
2017,04,22,00,27,7.20
2017,04,22,00,28,7.20
2017,04,22,00,29,7.20
2017,04,22,00,30,7.20
2017,04,22,00,31,7.20
2017,04,22,00,32,7.30
2017,04,22,00,33,7.30
2017,04,22,00,34,7.30
2017,04,22,00,35,7.30
2017,04,22,00,36,7.30
2017,04,22,00,37,7.30
2017,04,22,00,38,7.30
2017,04,22,00,39,7.30
2017,04,22,00,40,7.30
2017,04,22,00,41,7.30
2017,04,22,00,42,7.30
2017,04,22,00,43,7.40
2017,04,22,00,44,7.40
2017,04,22,00,45,7.50
2017,04,22,00,46,7.50
2017,04,22,00,47,7.60
2017,04,22,00,48,7.60
2017,04,22,00,49,7.60
2017,04,22,00,50,7.60
2017,04,22,00,51,7.70
2017,04,22,00,52,7.70
2017,04,22,00,53,7.70
2017,04,22,00,54,7.70
2017,04,22,00,55,7.70
2017,04,22,00,56,7.70
2017,04,22,00,57,7.70
2017,04,22,00,58,7.70
2017,04,22,00,59,7.70
2017,04,22,01,00,7.70
2017,04,22,01,01,7.70
2017,04,22,01,02,7.70
2017,04,22,01,03,7.70
2017,04,22,01,04,7.70
2017,04,22,01,05,7.70
2017,04,22,01,06,7.70
2017,04,22,01,07,7.70
2017,04,22,01,08,7.70
2017,04,22,01,09,7.70
2017,04,22,01,10,7.70
2017,04,22,01,11,7.70
2017,04,22,01,12,7.70
2017,04,22,01,13,7.70
2017,04,22,01,14,7.70
2017,04,22,01,15,7.80
2017,04,22,01,16,7.90
2017,04,22,01,17,7.90
2017,04,22,01,18,7.90
2017,04,22,01,19,7.90
2017,04,22,01,20,8.00
2017,04,22,01,21,8.10
2017,04,22,01,22,8.10
2017,04,22,01,23,8.00
2017,04,22,01,24,8.00
2017,04,22,01,25,8.00
2017,04,22,01,26,7.90
2017,04,22,01,27,7.90
2017,04,22,01,28,7.90
2017,04,22,01,29,7.90
2017,04,22,01,30,7.80
2017,04,22,01,31,7.80
2017,04,22,01,32,7.80
2017,04,22,01,33,7.80
2017,04,22,01,34,7.80
2017,04,22,01,35,7.80
2017,04,22,01,36,7.80
2017,04,22,01,37,7.80
2017,04,22,01,38,7.80
2017,04,22,01,39,7.80
2017,04,22,01,40,7.80
2017,04,22,01,41,7.80
2017,04,22,01,42,7.80
2017,04,22,01,43,7.80
2017,04,22,01,44,7.80
2017,04,22,01,45,7.80
2017,04,22,01,46,7.80
2017,04,22,01,47,7.70
2017,04,22,01,48,7.70
2017,04,22,01,49,7.70
2017,04,22,01,50,7.70
2017,04,22,01,51,7.70
2017,04,22,01,52,7.60
2017,04,22,01,53,7.60
2017,04,22,01,54,7.60
2017,04,22,01,55,7.60
2017,04,22,01,56,7.60
2017,04,22,01,57,7.60
2017,04,22,01,58,7.50
2017,04,22,01,59,7.50
2017,04,22,02,00,7.50
2017,04,22,02,01,7.40
2017,04,22,02,02,7.40
2017,04,22,02,03,7.40
2017,04,22,02,04,7.40
2017,04,22,02,05,7.40
2017,04,22,02,06,7.40
2017,04,22,02,07,7.40
2017,04,22,02,08,7.40
2017,04,22,02,09,7.30
2017,04,22,02,10,7.30
2017,04,22,02,11,7.30
2017,04,22,02,12,7.30
2017,04,22,02,13,7.30
2017,04,22,02,14,7.40
2017,04,22,02,15,7.40
2017,04,22,02,16,7.40
2017,04,22,02,17,7.40
2017,04,22,02,18,7.40
2017,04,22,02,19,7.40
2017,04,22,02,20,7.40
2017,04,22,02,21,7.40
2017,04,22,02,22,7.40
2017,04,22,02,23,7.40
2017,04,22,02,24,7.40
2017,04,22,02,25,7.40
2017,04,22,02,26,7.40
2017,04,22,02,27,7.40
2017,04,22,02,28,7.30
2017,04,22,02,29,7.30
2017,04,22,02,30,7.30
2017,04,22,02,31,7.30
2017,04,22,02,32,7.30
2017,04,22,02,33,7.30
2017,04,22,02,34,7.20
2017,04,22,02,35,7.20
2017,04,22,02,36,7.20
2017,04,22,02,37,7.20
2017,04,22,02,38,7.20
2017,04,22,02,39,7.20
2017,04,22,02,40,7.20
2017,04,22,02,41,7.20
2017,04,22,02,42,7.20
2017,04,22,02,43,7.20
2017,04,22,02,44,7.20
2017,04,22,02,45,7.20
2017,04,22,02,46,7.20
2017,04,22,02,47,7.20
2017,04,22,02,48,7.20
2017,04,22,02,49,7.20
2017,04,22,02,50,7.20
2017,04,22,02,51,7.20
2017,04,22,02,52,7.20
2017,04,22,02,53,7.20
2017,04,22,02,54,7.20
2017,04,22,02,55,7.10
2017,04,22,02,56,7.10
2017,04,22,02,57,7.10
2017,04,22,02,58,7.10
2017,04,22,02,59,7.00
2017,04,22,03,00,7.00
2017,04,22,03,01,7.00
2017,04,22,03,02,7.00
2017,04,22,03,03,7.00
2017,04,22,03,04,7.00
2017,04,22,03,05,6.90
2017,04,22,03,06,6.90
2017,04,22,03,07,6.90
2017,04,22,03,08,6.90
2017,04,22,03,09,6.90
2017,04,22,03,10,6.90
2017,04,22,03,11,6.90
2017,04,22,03,12,6.90
2017,04,22,03,13,6.80
2017,04,22,03,14,6.80
2017,04,22,03,15,6.80
2017,04,22,03,16,6.80
2017,04,22,03,17,6.80
2017,04,22,03,18,6.80
2017,04,22,03,19,6.80
2017,04,22,03,20,6.80
2017,04,22,03,21,6.80
2017,04,22,03,22,6.80
2017,04,22,03,23,6.80
2017,04,22,03,24,6.80
2017,04,22,03,25,6.80
2017,04,22,03,26,6.80
2017,04,22,03,27,6.80
2017,04,22,03,28,6.90
2017,04,22,03,29,6.90
2017,04,22,03,30,6.90
2017,04,22,03,31,7.00
2017,04,22,03,32,7.00
2017,04,22,03,33,7.00
2017,04,22,03,34,7.10
2017,04,22,03,35,7.10
2017,04,22,03,36,7.10
2017,04,22,03,37,7.20
2017,04,22,03,38,7.20
2017,04,22,03,39,7.20
2017,04,22,03,40,7.20
2017,04,22,03,41,7.30
2017,04,22,03,42,7.40
2017,04,22,03,43,7.40
2017,04,22,03,44,7.40
2017,04,22,03,45,7.50
2017,04,22,03,46,7.50
2017,04,22,03,47,7.60
2017,04,22,03,48,7.60
2017,04,22,03,49,7.70
2017,04,22,03,50,7.70
2017,04,22,03,51,7.80
2017,04,22,03,52,7.80
2017,04,22,03,53,7.90
2017,04,22,03,54,7.90
2017,04,22,03,55,8.00
2017,04,22,03,56,8.10
2017,04,22,03,57,8.10
2017,04,22,03,58,8.20
2017,04,22,03,59,8.20
2017,04,22,04,00,8.20
2017,04,22,04,01,8.20
2017,04,22,04,02,8.30
2017,04,22,04,03,8.30
2017,04,22,04,04,8.30
2017,04,22,04,05,8.30
2017,04,22,04,06,8.30
2017,04,22,04,07,8.30
2017,04,22,04,08,8.30
2017,04,22,04,09,8.30
2017,04,22,04,10,8.20
2017,04,22,04,11,8.20
2017,04,22,04,12,8.20
2017,04,22,04,13,8.20
2017,04,22,04,14,8.20
2017,04,22,04,15,8.10
2017,04,22,04,16,8.10
2017,04,22,04,17,8.10
2017,04,22,04,18,8.10
2017,04,22,04,19,8.10
2017,04,22,04,20,8.20
2017,04,22,04,21,8.20
2017,04,22,04,22,8.20
2017,04,22,04,23,8.20
2017,04,22,04,24,8.20
2017,04,22,04,25,8.20
2017,04,22,04,26,8.20
2017,04,22,04,27,8.20
2017,04,22,04,28,8.30
2017,04,22,04,29,8.30
2017,04,22,04,30,8.30
2017,04,22,04,31,8.30
2017,04,22,04,32,8.40
2017,04,22,04,33,8.40
2017,04,22,04,34,8.40
2017,04,22,04,35,8.40
2017,04,22,04,36,8.40
2017,04,22,04,37,8.50
2017,04,22,04,38,8.50
2017,04,22,04,39,8.50
2017,04,22,04,40,8.50
2017,04,22,04,41,8.50
2017,04,22,04,42,8.50
2017,04,22,04,43,8.50
2017,04,22,04,44,8.50
2017,04,22,04,45,8.50
2017,04,22,04,46,8.50
2017,04,22,04,47,8.60
2017,04,22,04,48,8.60
2017,04,22,04,49,8.60
2017,04,22,04,50,8.60
2017,04,22,04,51,8.60
2017,04,22,04,52,8.60
2017,04,22,04,53,8.60
2017,04,22,04,54,8.60
2017,04,22,04,55,8.60
2017,04,22,04,56,8.60
2017,04,22,04,57,8.60
2017,04,22,04,58,8.70
2017,04,22,04,59,8.70
2017,04,22,05,00,8.70
2017,04,22,05,01,8.70
2017,04,22,05,02,8.70
2017,04,22,05,03,8.70
2017,04,22,05,04,8.70
2017,04,22,05,05,8.70
2017,04,22,05,06,8.70
2017,04,22,05,07,8.60
2017,04,22,05,08,8.60
2017,04,22,05,09,8.60
2017,04,22,05,10,8.50
2017,04,22,05,11,8.50
2017,04,22,05,12,8.50
2017,04,22,05,13,8.40
2017,04,22,05,14,8.40
2017,04,22,05,15,8.40
2017,04,22,05,16,8.30
2017,04,22,05,17,8.30
2017,04,22,05,18,8.30
2017,04,22,05,19,8.30
2017,04,22,05,20,8.30
2017,04,22,05,21,8.30
2017,04,22,05,22,8.30
2017,04,22,05,23,8.30
2017,04,22,05,24,8.30
2017,04,22,05,25,8.30
2017,04,22,05,26,8.30
2017,04,22,05,27,8.30
2017,04,22,05,28,8.40
2017,04,22,05,29,8.50
2017,04,22,05,30,8.50
2017,04,22,05,31,8.60
2017,04,22,05,32,8.60
2017,04,22,05,33,8.70
2017,04,22,05,34,8.70
2017,04,22,05,35,8.70
2017,04,22,05,36,8.80
2017,04,22,05,37,8.80
2017,04,22,05,38,8.70
2017,04,22,05,39,8.70
2017,04,22,05,40,8.70
2017,04,22,05,41,8.70
2017,04,22,05,42,8.70
2017,04,22,05,43,8.70
2017,04,22,05,44,8.70
2017,04,22,05,45,8.80
2017,04,22,05,46,8.80
2017,04,22,05,47,8.80
2017,04,22,05,48,8.80
2017,04,22,05,49,8.80
2017,04,22,05,50,8.80
2017,04,22,05,51,8.90
2017,04,22,05,52,8.90
2017,04,22,05,53,8.90
2017,04,22,05,54,8.90
2017,04,22,05,55,8.90
2017,04,22,05,56,8.90
2017,04,22,05,57,9.00
2017,04,22,05,58,9.00
2017,04,22,05,59,9.00
2017,04,22,06,00,9.00
2017,04,22,06,01,9.00
2017,04,22,06,02,9.00
2017,04,22,06,03,9.00
2017,04,22,06,04,8.90
2017,04,22,06,05,8.90
2017,04,22,06,06,8.90
2017,04,22,06,07,8.90
2017,04,22,06,08,8.90
2017,04,22,06,09,8.90
2017,04,22,06,10,8.90
2017,04,22,06,11,8.90
2017,04,22,06,12,8.90
2017,04,22,06,13,8.90
2017,04,22,06,14,8.90
2017,04,22,06,15,8.90
2017,04,22,06,16,8.90
2017,04,22,06,17,8.90
2017,04,22,06,18,8.90
2017,04,22,06,19,8.90
2017,04,22,06,20,8.90
2017,04,22,06,21,8.90
2017,04,22,06,22,8.90
2017,04,22,06,23,8.90
2017,04,22,06,24,8.90
2017,04,22,06,25,8.90
2017,04,22,06,26,8.90
2017,04,22,06,27,8.90
2017,04,22,06,28,9.00
2017,04,22,06,29,9.00
2017,04,22,06,30,9.00
2017,04,22,06,31,9.00
2017,04,22,06,32,9.00
2017,04,22,06,33,9.00
2017,04,22,06,34,9.00
2017,04,22,06,35,9.10
2017,04,22,06,36,9.10
2017,04,22,06,37,9.10
2017,04,22,06,38,9.10
2017,04,22,06,39,9.10
2017,04,22,06,40,9.10
2017,04,22,06,41,9.20
2017,04,22,06,42,9.20
2017,04,22,06,43,9.20
2017,04,22,06,44,9.20
2017,04,22,06,45,9.20
2017,04,22,06,46,9.20
2017,04,22,06,47,9.20
2017,04,22,06,48,9.20
2017,04,22,06,49,9.20
2017,04,22,06,50,9.20
2017,04,22,06,51,9.20
2017,04,22,06,52,9.20
2017,04,22,06,53,9.20
2017,04,22,06,54,9.20
2017,04,22,06,55,9.20
2017,04,22,06,56,9.20
2017,04,22,06,57,9.20
2017,04,22,06,58,9.20
2017,04,22,06,59,9.20
2017,04,22,07,00,9.30
2017,04,22,07,01,9.30
2017,04,22,07,02,9.30
2017,04,22,07,03,9.40
2017,04,22,07,04,9.40
2017,04,22,07,05,9.50
2017,04,22,07,06,9.60
2017,04,22,07,07,9.60
2017,04,22,07,08,9.60
2017,04,22,07,09,9.60
2017,04,22,07,10,9.70
2017,04,22,07,11,9.70
2017,04,22,07,12,9.70
2017,04,22,07,13,9.70
2017,04,22,07,14,9.70
2017,04,22,07,15,9.70
2017,04,22,07,16,9.70
2017,04,22,07,17,9.70
2017,04,22,07,18,9.70
2017,04,22,07,19,9.70
2017,04,22,07,20,9.70
2017,04,22,07,21,9.70
2017,04,22,07,22,9.70
2017,04,22,07,23,9.70
2017,04,22,07,24,9.70
2017,04,22,07,25,9.60
2017,04,22,07,26,9.60
2017,04,22,07,27,9.60
2017,04,22,07,28,9.60
2017,04,22,07,29,9.60
2017,04,22,07,30,9.60
2017,04,22,07,31,9.70
2017,04,22,07,32,9.70
2017,04,22,07,33,9.70
2017,04,22,07,34,9.70
2017,04,22,07,35,9.70
2017,04,22,07,36,9.80
2017,04,22,07,37,9.80
2017,04,22,07,38,9.80
2017,04,22,07,39,9.80
2017,04,22,07,40,9.80
2017,04,22,07,41,9.90
2017,04,22,07,42,9.90
2017,04,22,07,43,10.00
2017,04,22,07,44,10.00
2017,04,22,07,45,10.00
2017,04,22,07,46,10.10
2017,04,22,07,47,10.10
2017,04,22,07,48,10.10
2017,04,22,07,49,10.10
2017,04,22,07,50,10.20
2017,04,22,07,51,10.20
2017,04,22,07,52,10.20
2017,04,22,07,53,10.20
2017,04,22,07,54,10.20
2017,04,22,07,55,10.20
2017,04,22,07,56,10.30
2017,04,22,07,57,10.30
2017,04,22,07,58,10.30
2017,04,22,07,59,10.30
2017,04,22,08,00,10.30
2017,04,22,08,01,10.30
2017,04,22,08,02,10.30
2017,04,22,08,03,10.40
2017,04,22,08,04,10.40
2017,04,22,08,05,10.50
2017,04,22,08,06,10.50
2017,04,22,08,07,10.60
2017,04,22,08,08,10.60
2017,04,22,08,09,10.60
2017,04,22,08,10,10.60
2017,04,22,08,11,10.60
2017,04,22,08,12,10.60
2017,04,22,08,13,10.70
2017,04,22,08,14,10.70
2017,04,22,08,15,10.70
2017,04,22,08,16,10.70
2017,04,22,08,17,10.80
2017,04,22,08,18,10.80
2017,04,22,08,19,10.80
2017,04,22,08,20,10.80
2017,04,22,08,21,10.80
2017,04,22,08,22,10.80
2017,04,22,08,23,10.90
2017,04,22,08,24,10.90
2017,04,22,08,25,10.80
2017,04,22,08,26,10.90
2017,04,22,08,27,10.90
2017,04,22,08,28,10.90
2017,04,22,08,29,10.90
2017,04,22,08,30,10.90
2017,04,22,08,31,10.90
2017,04,22,08,32,10.90
2017,04,22,08,33,10.90
2017,04,22,08,34,11.00
2017,04,22,08,35,11.00
2017,04,22,08,36,11.00
2017,04,22,08,37,11.00
2017,04,22,08,38,11.10
2017,04,22,08,39,11.10
2017,04,22,08,40,11.10
2017,04,22,08,41,11.10
2017,04,22,08,42,11.10
2017,04,22,08,43,11.10
2017,04,22,08,44,11.20
2017,04,22,08,45,11.20
2017,04,22,08,46,11.20
2017,04,22,08,47,11.20
2017,04,22,08,48,11.20
2017,04,22,08,49,11.20
2017,04,22,08,50,11.30
2017,04,22,08,51,11.30
2017,04,22,08,52,11.30
2017,04,22,08,53,11.40
2017,04,22,08,54,11.40
2017,04,22,08,55,11.50
2017,04,22,08,56,11.50
2017,04,22,08,57,11.60
2017,04,22,08,58,11.60
2017,04,22,08,59,11.60
2017,04,22,09,00,11.70
2017,04,22,09,01,11.70
2017,04,22,09,02,11.70
2017,04,22,09,03,11.70
2017,04,22,09,04,11.80
2017,04,22,09,05,11.80
2017,04,22,09,06,11.80
2017,04,22,09,07,11.80
2017,04,22,09,08,11.80
2017,04,22,09,09,11.90
2017,04,22,09,10,11.90
2017,04,22,09,11,11.90
2017,04,22,09,12,11.90
2017,04,22,09,13,11.90
2017,04,22,09,14,11.90
2017,04,22,09,15,11.90
2017,04,22,09,16,11.90
2017,04,22,09,17,11.90
2017,04,22,09,18,11.90
2017,04,22,09,19,12.00
2017,04,22,09,20,12.00
2017,04,22,09,21,12.00
2017,04,22,09,22,12.00
2017,04,22,09,23,12.00
2017,04,22,09,24,12.10
2017,04,22,09,25,12.10
2017,04,22,09,26,12.10
2017,04,22,09,27,12.10
2017,04,22,09,28,12.10
2017,04,22,09,29,12.10
2017,04,22,09,30,12.10
2017,04,22,09,31,12.20
2017,04,22,09,32,12.20
2017,04,22,09,33,12.20
2017,04,22,09,34,12.20
2017,04,22,09,35,12.20
2017,04,22,09,36,12.20
2017,04,22,09,37,12.20
2017,04,22,09,38,12.20
2017,04,22,09,39,12.20
2017,04,22,09,40,12.20
2017,04,22,09,41,12.20
2017,04,22,09,42,12.20
2017,04,22,09,43,12.20
2017,04,22,09,44,12.20
2017,04,22,09,45,12.20
2017,04,22,09,46,12.20
2017,04,22,09,47,12.20
2017,04,22,09,48,12.20
2017,04,22,09,49,12.20
2017,04,22,09,50,12.30
2017,04,22,09,51,12.30
2017,04,22,09,52,12.30
2017,04,22,09,53,12.30
2017,04,22,09,54,12.30
2017,04,22,09,55,12.30
2017,04,22,09,56,12.30
2017,04,22,09,57,12.40
2017,04,22,09,58,12.40
2017,04,22,09,59,12.40
2017,04,22,10,00,12.40
2017,04,22,10,01,12.40
2017,04,22,10,02,12.40
2017,04,22,10,03,12.40
2017,04,22,10,04,12.40
2017,04,22,10,05,12.40
2017,04,22,10,06,12.40
2017,04,22,10,07,12.40
2017,04,22,10,08,12.40
2017,04,22,10,09,12.40
2017,04,22,10,10,12.40
2017,04,22,10,11,12.50
2017,04,22,10,12,12.50
2017,04,22,10,13,12.50
2017,04,22,10,14,12.50
2017,04,22,10,15,12.40
2017,04,22,10,16,12.40
2017,04,22,10,17,12.40
2017,04,22,10,18,12.40
2017,04,22,10,19,12.40
2017,04,22,10,20,12.40
2017,04,22,10,21,12.40
2017,04,22,10,22,12.40
2017,04,22,10,23,12.40
2017,04,22,10,24,12.40
2017,04,22,10,25,12.40
2017,04,22,10,26,12.40
2017,04,22,10,27,12.40
2017,04,22,10,28,12.40
2017,04,22,10,29,12.30
2017,04,22,10,30,12.40
2017,04,22,10,31,12.30
2017,04,22,10,32,12.30
2017,04,22,10,33,12.30
2017,04,22,10,34,12.30
2017,04,22,10,35,12.30
2017,04,22,10,36,12.30
2017,04,22,10,37,12.30
2017,04,22,10,38,12.30
2017,04,22,10,39,12.30
2017,04,22,10,40,12.30
2017,04,22,10,41,12.30
2017,04,22,10,42,12.30
2017,04,22,10,43,12.30
2017,04,22,10,44,12.40
2017,04,22,10,45,12.40
2017,04,22,10,46,12.40
2017,04,22,10,47,12.40
2017,04,22,10,48,12.40
2017,04,22,10,49,12.40
2017,04,22,10,50,12.40
2017,04,22,10,51,12.40
2017,04,22,10,52,12.40
2017,04,22,10,53,12.40
2017,04,22,10,54,12.40
2017,04,22,10,55,12.50
2017,04,22,10,56,12.50
2017,04,22,10,57,12.50
2017,04,22,10,58,12.60
2017,04,22,10,59,12.60
2017,04,22,11,00,12.60
2017,04,22,11,01,12.70
2017,04,22,11,02,12.70
2017,04,22,11,03,12.70
2017,04,22,11,04,12.80
2017,04,22,11,05,12.80
2017,04,22,11,06,12.80
2017,04,22,11,07,12.80
2017,04,22,11,08,12.90
2017,04,22,11,09,12.90
2017,04,22,11,10,13.00
2017,04,22,11,11,13.00
2017,04,22,11,12,13.10
2017,04,22,11,13,13.10
2017,04,22,11,14,13.10
2017,04,22,11,15,13.10
2017,04,22,11,16,13.10
2017,04,22,11,17,13.10
2017,04,22,11,18,13.10
2017,04,22,11,19,13.10
2017,04,22,11,20,13.10
2017,04,22,11,21,13.10
2017,04,22,11,22,13.10
2017,04,22,11,23,13.10
2017,04,22,11,24,13.10
2017,04,22,11,25,13.10
2017,04,22,11,26,13.10
2017,04,22,11,27,13.10
2017,04,22,11,28,13.10
2017,04,22,11,29,13.00
2017,04,22,11,30,13.00
2017,04,22,11,31,13.00
2017,04,22,11,32,13.00
2017,04,22,11,33,13.00
2017,04,22,11,34,12.90
2017,04,22,11,35,12.90
2017,04,22,11,36,12.90
2017,04,22,11,37,12.90
2017,04,22,11,38,12.90
2017,04,22,11,39,12.90
2017,04,22,11,40,12.90
2017,04,22,11,41,12.90
2017,04,22,11,42,13.00
2017,04,22,11,43,13.00
2017,04,22,11,44,13.00
2017,04,22,11,45,13.00
2017,04,22,11,46,13.10
2017,04,22,11,47,13.10
2017,04,22,11,48,13.10
2017,04,22,11,49,13.10
2017,04,22,11,50,13.00
2017,04,22,11,51,13.00
2017,04,22,11,52,12.90
2017,04,22,11,53,12.90
2017,04,22,11,54,12.90
2017,04,22,11,55,12.90
2017,04,22,11,56,12.90
2017,04,22,11,57,12.90
2017,04,22,11,58,12.90
2017,04,22,11,59,12.90
2017,04,22,12,00,12.80
2017,04,22,12,01,12.80
2017,04,22,12,02,12.80
2017,04,22,12,03,12.80
2017,04,22,12,04,12.80
2017,04,22,12,05,12.80
2017,04,22,12,06,12.80
2017,04,22,12,07,12.80
2017,04,22,12,08,12.80
2017,04,22,12,09,12.80
2017,04,22,12,10,12.80
2017,04,22,12,11,12.80
2017,04,22,12,12,12.80
2017,04,22,12,13,12.80
2017,04,22,12,14,12.80
2017,04,22,12,15,12.80
2017,04,22,12,16,12.80
2017,04,22,12,17,12.80
2017,04,22,12,18,12.80
2017,04,22,12,19,12.80
2017,04,22,12,20,12.80
2017,04,22,12,21,12.80
2017,04,22,12,22,12.70
2017,04,22,12,23,12.70
2017,04,22,12,24,12.70
2017,04,22,12,25,12.70
2017,04,22,12,26,12.70
2017,04,22,12,27,12.70
2017,04,22,12,28,12.70
2017,04,22,12,29,12.60
2017,04,22,12,30,12.60
2017,04,22,12,31,12.50
2017,04,22,12,32,12.50
2017,04,22,12,33,12.40
2017,04,22,12,34,12.40
2017,04,22,12,35,12.40
2017,04,22,12,36,12.30
2017,04,22,12,37,12.30
2017,04,22,12,38,12.30
2017,04,22,12,39,12.20
2017,04,22,12,40,12.10
2017,04,22,12,41,12.10
2017,04,22,12,42,12.00
2017,04,22,12,43,12.00
2017,04,22,12,44,12.00
2017,04,22,12,45,11.90
2017,04,22,12,46,11.90
2017,04,22,12,47,11.90
2017,04,22,12,48,11.80
2017,04,22,12,49,11.80
2017,04,22,12,50,11.80
2017,04,22,12,51,11.80
2017,04,22,12,52,11.80
2017,04,22,12,53,11.70
2017,04,22,12,54,11.80
2017,04,22,12,55,11.80
2017,04,22,12,56,11.70
2017,04,22,12,57,11.70
2017,04,22,12,58,11.70
2017,04,22,12,59,11.70
2017,04,22,13,00,11.70
2017,04,22,13,01,11.70
2017,04,22,13,02,11.70
2017,04,22,13,03,11.70
2017,04,22,13,04,11.70
2017,04,22,13,05,11.70
2017,04,22,13,06,11.60
2017,04,22,13,07,11.60
2017,04,22,13,08,11.60
2017,04,22,13,09,11.50
2017,04,22,13,10,11.40
2017,04,22,13,11,11.30
2017,04,22,13,12,11.30
2017,04,22,13,13,11.20
2017,04,22,13,14,11.20
2017,04,22,13,15,11.10
2017,04,22,13,16,11.10
2017,04,22,13,17,11.10
2017,04,22,13,18,11.00
2017,04,22,13,19,11.00
2017,04,22,13,20,10.90
2017,04,22,13,21,10.80
2017,04,22,13,22,10.80
2017,04,22,13,23,10.80
2017,04,22,13,24,10.70
2017,04,22,13,25,10.70
2017,04,22,13,26,10.70
2017,04,22,13,27,10.60
2017,04,22,13,28,10.60
2017,04,22,13,29,10.60
2017,04,22,13,30,10.50
2017,04,22,13,31,10.50
2017,04,22,13,32,10.50
2017,04,22,13,33,10.40
2017,04,22,13,34,10.40
2017,04,22,13,35,10.40
2017,04,22,13,36,10.40
2017,04,22,13,37,10.30
2017,04,22,13,38,10.30
2017,04,22,13,39,10.30
2017,04,22,13,40,10.20
2017,04,22,13,41,10.20
2017,04,22,13,42,10.20
2017,04,22,13,43,10.20
2017,04,22,13,44,10.10
2017,04,22,13,45,10.10
2017,04,22,13,46,10.10
2017,04,22,13,47,10.10
2017,04,22,13,48,10.10
2017,04,22,13,49,10.00
2017,04,22,13,50,10.00
2017,04,22,13,51,10.00
2017,04,22,13,52,10.00
2017,04,22,13,53,10.00
2017,04,22,13,54,10.00
2017,04,22,13,55,10.00
2017,04,22,13,56,10.10
2017,04,22,13,57,10.10
2017,04,22,13,58,10.10
2017,04,22,13,59,10.10
2017,04,22,14,00,10.10
2017,04,22,14,01,10.10
2017,04,22,14,02,10.10
2017,04,22,14,03,10.10
2017,04,22,14,04,10.10
2017,04,22,14,05,10.00
2017,04,22,14,06,10.00
2017,04,22,14,07,10.00
2017,04,22,14,08,10.00
2017,04,22,14,09,10.10
2017,04,22,14,10,10.10
2017,04,22,14,11,10.10
2017,04,22,14,12,10.10
2017,04,22,14,13,10.10
2017,04,22,14,14,10.10
2017,04,22,14,15,10.10
2017,04,22,14,16,10.10
2017,04,22,14,17,10.10
2017,04,22,14,18,10.10
2017,04,22,14,19,10.10
2017,04,22,14,20,10.10
2017,04,22,14,21,10.20
2017,04,22,14,22,10.20
2017,04,22,14,23,10.20
2017,04,22,14,24,10.20
2017,04,22,14,25,10.20
2017,04,22,14,26,10.20
2017,04,22,14,27,10.20
2017,04,22,14,28,10.30
2017,04,22,14,29,10.30
2017,04,22,14,30,10.30
2017,04,22,14,31,10.30
2017,04,22,14,32,10.40
2017,04,22,14,33,10.40
2017,04,22,14,34,10.40
2017,04,22,14,35,10.40
2017,04,22,14,36,10.60
2017,04,22,14,37,10.60
2017,04,22,14,38,10.70
2017,04,22,14,39,10.70
2017,04,22,14,40,10.70
2017,04,22,14,41,10.70
2017,04,22,14,42,10.70
2017,04,22,14,43,10.70
2017,04,22,14,44,10.60
2017,04,22,14,45,10.60
2017,04,22,14,46,10.60
2017,04,22,14,47,10.60
2017,04,22,14,48,10.60
2017,04,22,14,49,10.60
2017,04,22,14,50,10.60
2017,04,22,14,51,10.60
2017,04,22,14,52,10.70
2017,04,22,14,53,10.60
2017,04,22,14,54,10.60
2017,04,22,14,55,10.60
2017,04,22,14,56,10.60
2017,04,22,14,57,10.60
2017,04,22,14,58,10.60
2017,04,22,14,59,10.60
2017,04,22,15,00,10.60
2017,04,22,15,01,10.60
2017,04,22,15,02,10.60
2017,04,22,15,03,10.60
2017,04,22,15,04,10.60
2017,04,22,15,05,10.60
2017,04,22,15,06,10.60
2017,04,22,15,07,10.60
2017,04,22,15,08,10.50
2017,04,22,15,09,10.50
2017,04,22,15,10,10.50
2017,04,22,15,11,10.40
2017,04,22,15,12,10.40
2017,04,22,15,13,10.40
2017,04,22,15,14,10.50
2017,04,22,15,15,10.50
2017,04,22,15,16,10.50
2017,04,22,15,17,10.50
2017,04,22,15,18,10.60
2017,04,22,15,19,10.60
2017,04,22,15,20,10.60
2017,04,22,15,21,10.70
2017,04,22,15,22,10.80
2017,04,22,15,23,10.80
2017,04,22,15,24,10.80
2017,04,22,15,25,10.80
2017,04,22,15,26,10.80
2017,04,22,15,27,10.80
2017,04,22,15,28,10.80
2017,04,22,15,29,10.80
2017,04,22,15,30,10.80
2017,04,22,15,31,10.80
2017,04,22,15,32,10.90
2017,04,22,15,33,10.90
2017,04,22,15,34,10.90
2017,04,22,15,35,10.90
2017,04,22,15,36,10.90
2017,04,22,15,37,10.90
2017,04,22,15,38,10.90
2017,04,22,15,39,10.90
2017,04,22,15,40,10.90
2017,04,22,15,41,10.90
2017,04,22,15,42,10.90
2017,04,22,15,43,10.90
2017,04,22,15,44,10.90
2017,04,22,15,45,10.90
2017,04,22,15,46,10.90
2017,04,22,15,47,10.90
2017,04,22,15,48,10.90
2017,04,22,15,49,10.90
2017,04,22,15,50,10.90
2017,04,22,15,51,10.80
2017,04,22,15,52,10.80
2017,04,22,15,53,10.80
2017,04,22,15,54,10.80
2017,04,22,15,55,10.70
2017,04,22,15,56,10.70
2017,04,22,15,57,10.70
2017,04,22,15,58,10.70
2017,04,22,15,59,10.70
2017,04,22,16,00,10.70
2017,04,22,16,01,10.70
2017,04,22,16,02,10.70
2017,04,22,16,03,10.70
2017,04,22,16,04,10.70
2017,04,22,16,05,10.70
2017,04,22,16,06,10.80
2017,04,22,16,07,10.80
2017,04,22,16,08,10.80
2017,04,22,16,09,10.80
2017,04,22,16,10,10.90
2017,04,22,16,11,10.90
2017,04,22,16,12,10.80
2017,04,22,16,13,10.80
2017,04,22,16,14,10.80
2017,04,22,16,15,10.90
2017,04,22,16,16,10.90
2017,04,22,16,17,10.90
2017,04,22,16,18,10.90
2017,04,22,16,19,10.90
2017,04,22,16,20,10.80
2017,04,22,16,21,10.80
2017,04,22,16,22,10.80
2017,04,22,16,23,10.80
2017,04,22,16,24,10.80
2017,04,22,16,25,10.80
2017,04,22,16,26,10.70
2017,04,22,16,27,10.70
2017,04,22,16,28,10.70
2017,04,22,16,29,10.70
2017,04,22,16,30,10.70
2017,04,22,16,31,10.70
2017,04,22,16,32,10.70
2017,04,22,16,33,10.70
2017,04,22,16,34,10.70
2017,04,22,16,35,10.70
2017,04,22,16,36,10.70
2017,04,22,16,37,10.70
2017,04,22,16,38,10.70
2017,04,22,16,39,10.80
2017,04,22,16,40,10.80
2017,04,22,16,41,10.80
2017,04,22,16,42,10.80
2017,04,22,16,43,10.80
2017,04,22,16,44,10.80
2017,04,22,16,45,10.80
2017,04,22,16,46,10.80
2017,04,22,16,47,10.80
2017,04,22,16,48,10.70
2017,04,22,16,49,10.70
2017,04,22,16,50,10.70
2017,04,22,16,51,10.70
2017,04,22,16,52,10.70
2017,04,22,16,53,10.70
2017,04,22,16,54,10.60
2017,04,22,16,55,10.60
2017,04,22,16,56,10.60
2017,04,22,16,57,10.60
2017,04,22,16,58,10.50
2017,04,22,16,59,10.50
2017,04,22,17,00,10.50
2017,04,22,17,01,10.50
2017,04,22,17,02,10.50
2017,04,22,17,03,10.50
2017,04,22,17,04,10.50
2017,04,22,17,05,10.50
2017,04,22,17,06,10.50
2017,04,22,17,07,10.50
2017,04,22,17,08,10.50
2017,04,22,17,09,10.50
2017,04,22,17,10,10.40
2017,04,22,17,11,10.40
2017,04,22,17,12,10.30
2017,04,22,17,13,10.30
2017,04,22,17,14,10.30
2017,04,22,17,15,10.30
2017,04,22,17,16,10.30
2017,04,22,17,17,10.30
2017,04,22,17,18,10.20
2017,04,22,17,19,10.20
2017,04,22,17,20,10.20
2017,04,22,17,21,10.20
2017,04,22,17,22,10.20
2017,04,22,17,23,10.20
2017,04,22,17,24,10.20
2017,04,22,17,25,10.20
2017,04,22,17,26,10.20
2017,04,22,17,27,10.20
2017,04,22,17,28,10.20
2017,04,22,17,29,10.20
2017,04,22,17,30,10.20
2017,04,22,17,31,10.30
2017,04,22,17,32,10.30
2017,04,22,17,33,10.30
2017,04,22,17,34,10.30
2017,04,22,17,35,10.30
2017,04,22,17,36,10.30
2017,04,22,17,37,10.30
2017,04,22,17,38,10.30
2017,04,22,17,39,10.30